,,Stat5,,Stat1,,Stat2,,Stat3,,Stat4,,Wind1,,Wind1,
time,status,PA1M_AVG,status,PR1M_SUM,status,RH1M_AVG,status,SR1M_AVG,status,TA1M_AVG,status,W1dAve1m,status,W1sAve1m,
2002-11-03, 00:00:00,VALID,918.482,VALID,0,VALID,94.3874,VALID,-0.0169808,VALID,19.5151,VALID,47,VALID,0.105574,
2002-11-03, 00:01:00,VALID,918.478,VALID,0,VALID,94.4726,VALID,0,VALID,19.4987,VALID,47,VALID,0.00380068,
2002-11-03, 00:02:00,VALID,918.488,VALID,0,VALID,94.5743,VALID,0,VALID,19.4855,VALID,47,VALID,0.234786,
2002-11-03, 00:03:00,VALID,918.498,VALID,0,VALID,94.7066,VALID,-0.0169808,VALID,19.4793,VALID,147,VALID,0.396537,
2002-11-03, 00:04:00,VALID,918.51,VALID,0,VALID,94.8503,VALID,0.0169808,VALID,19.4828,VALID,155,VALID,0.0193015,
2002-11-03, 00:05:00,VALID,918.51,VALID,0,VALID,94.7994,VALID,0,VALID,19.496,VALID,113,VALID,0.405048,
2002-11-03, 00:06:00,VALID,918.527,VALID,0,VALID,94.6506,VALID,0,VALID,19.4828,VALID,124,VALID,0.645833,
2002-11-03, 00:07:00,VALID,918.524,VALID,0,VALID,94.451,VALID,0.0169808,VALID,19.5186,VALID,130,VALID,0.527344,
2002-11-03, 00:08:00,VALID,918.532,VALID,0,VALID,94.3264,VALID,0,VALID,19.5472,VALID,133,VALID,0.366386,
2002-11-03, 00:09:00,VALID,918.517,VALID,0,VALID,94.1712,VALID,0,VALID,19.5993,VALID,144,VALID,0.743454,
2002-11-03, 00:10:00,VALID,918.503,VALID,0,VALID,93.9271,VALID,-0.0169808,VALID,19.6319,VALID,148,VALID,0.676098,
2002-11-03, 00:11:00,VALID,918.487,VALID,0,VALID,93.777,VALID,0,VALID,19.651,VALID,142,VALID,0.76222,
2002-11-03, 00:12:00,VALID,918.487,VALID,0,VALID,93.4985,VALID,0,VALID,19.6739,VALID,143,VALID,1.10136,
2002-11-03, 00:13:00,VALID,918.49,VALID,0,VALID,93.3434,VALID,-0.0169808,VALID,19.7161,VALID,143,VALID,0.984992,
2002-11-03, 00:14:00,VALID,918.491,VALID,0,VALID,93.3027,VALID,0,VALID,19.741,VALID,136,VALID,0.949324,
2002-11-03, 00:15:00,VALID,918.483,VALID,0,VALID,93.1857,VALID,0,VALID,19.7676,VALID,134,VALID,0.842882,
2002-11-03, 00:16:00,VALID,918.493,VALID,0,VALID,92.9365,VALID,0,VALID,19.7765,VALID,134,VALID,0.730152,
2002-11-03, 00:17:00,VALID,918.48,VALID,0,VALID,92.775,VALID,0.0169808,VALID,19.8086,VALID,128,VALID,0.751645,
2002-11-03, 00:18:00,VALID,918.486,VALID,0,VALID,92.5919,VALID,0,VALID,19.858,VALID,132,VALID,0.507412,
2002-11-03, 00:19:00,VALID,918.465,VALID,0,VALID,92.5003,VALID,0,VALID,19.8771,VALID,138,VALID,0.484976,
2002-11-03, 00:20:00,VALID,918.456,VALID,0,VALID,92.3668,VALID,0,VALID,19.893,VALID,98,VALID,0.499367,
2002-11-03, 00:21:00,VALID,918.456,VALID,0,VALID,92.377,VALID,0,VALID,19.9162,VALID,103,VALID,0.275082,
2002-11-03, 00:22:00,VALID,918.445,VALID,0,VALID,92.2473,VALID,0,VALID,19.8963,VALID,107,VALID,0.360377,
2002-11-03, 00:23:00,VALID,918.457,VALID,0,VALID,91.8734,VALID,0,VALID,19.9191,VALID,115,VALID,0.582933,
2002-11-03, 00:24:00,VALID,918.461,VALID,0,VALID,91.792,VALID,0,VALID,19.9544,VALID,115,VALID,0.390395,
2002-11-03, 00:25:00,VALID,918.471,VALID,0,VALID,91.689,VALID,0,VALID,19.9701,VALID,160,VALID,0.478413,
2002-11-03, 00:26:00,VALID,918.469,VALID,0,VALID,91.586,VALID,0,VALID,19.9867,VALID,164,VALID,0.317356,
2002-11-03, 00:27:00,VALID,918.487,VALID,0,VALID,91.5746,VALID,-0.0169808,VALID,19.9703,VALID,150,VALID,0.305773,
2002-11-03, 00:28:00,VALID,918.483,VALID,0,VALID,91.6191,VALID,0,VALID,19.9845,VALID,134,VALID,0.118056,
2002-11-03, 00:29:00,VALID,918.464,VALID,0,VALID,91.8556,VALID,0,VALID,19.9641,VALID,107,VALID,0.197368,
2002-11-03, 00:30:00,VALID,918.457,VALID,0,VALID,92.0044,VALID,0,VALID,19.9326,VALID,93,VALID,0.54153,
2002-11-03, 00:31:00,VALID,918.456,VALID,0,VALID,92.246,VALID,0.0169808,VALID,19.8737,VALID,128,VALID,0.304688,
2002-11-03, 00:32:00,VALID,918.421,VALID,0,VALID,92.4584,VALID,-0.0169808,VALID,19.8379,VALID,179,VALID,0.323214,
2002-11-03, 00:33:00,VALID,918.405,VALID,0,VALID,92.4774,VALID,0.0169808,VALID,19.8543,VALID,175,VALID,0.102385,
2002-11-03, 00:34:00,VALID,918.368,VALID,0,VALID,92.4253,VALID,0.0169808,VALID,19.8446,VALID,169,VALID,0.518429,
2002-11-03, 00:35:00,VALID,918.359,VALID,0,VALID,91.9218,VALID,0,VALID,19.8575,VALID,145,VALID,0.88457,
2002-11-03, 00:36:00,VALID,918.358,VALID,0,VALID,91.8582,VALID,0,VALID,19.8995,VALID,62,VALID,0.546464,
2002-11-03, 00:37:00,VALID,918.354,VALID,0,VALID,91.8722,VALID,0.0169808,VALID,19.893,VALID,54,VALID,0.248355,
2002-11-03, 00:38:00,VALID,918.35,VALID,0,VALID,92.0871,VALID,0,VALID,19.8642,VALID,54,VALID,0,
2002-11-03, 00:39:00,VALID,918.34,VALID,0,VALID,92.3312,VALID,0,VALID,19.8287,VALID,133,VALID,0.195913,
2002-11-03, 00:40:00,VALID,918.33,VALID,0,VALID,92.3694,VALID,0,VALID,19.8187,VALID,183,VALID,0.174079,
2002-11-03, 00:41:00,VALID,918.323,VALID,0,VALID,92.377,VALID,-0.0169808,VALID,19.8289,VALID,161,VALID,0.688649,
2002-11-03, 00:42:00,VALID,918.308,VALID,0,VALID,92.3198,VALID,0,VALID,19.8125,VALID,182,VALID,0.606055,
2002-11-03, 00:43:00,VALID,918.302,VALID,0,VALID,92.3121,VALID,-0.0169808,VALID,19.816,VALID,150,VALID,0.344401,
2002-11-03, 00:44:00,VALID,918.273,VALID,0,VALID,92.4113,VALID,-0.0169808,VALID,19.7832,VALID,174,VALID,0.91059,
2002-11-03, 00:45:00,VALID,918.267,VALID,0,VALID,92.2447,VALID,0,VALID,19.7604,VALID,170,VALID,0.594172,
2002-11-03, 00:46:00,VALID,918.242,VALID,0,VALID,92.1557,VALID,0,VALID,19.8061,VALID,155,VALID,0.424342,
2002-11-03, 00:47:00,VALID,918.234,VALID,0,VALID,91.9917,VALID,0.0169808,VALID,19.822,VALID,113,VALID,0.518229,
2002-11-03, 00:48:00,VALID,918.216,VALID,0,VALID,92.0934,VALID,-0.0169808,VALID,19.8123,VALID,115,VALID,0.0333615,
2002-11-03, 00:49:00,VALID,918.208,VALID,0,VALID,92.2308,VALID,0,VALID,19.8023,VALID,139,VALID,0.292318,
2002-11-03, 00:50:00,VALID,918.2,VALID,0,VALID,92.2892,VALID,0.0169808,VALID,19.7964,VALID,158,VALID,0.514186,
2002-11-03, 00:51:00,VALID,918.21,VALID,0,VALID,92.3516,VALID,-0.0169808,VALID,19.7802,VALID,154,VALID,0.629012,
2002-11-03, 00:52:00,VALID,918.215,VALID,0,VALID,92.3948,VALID,0,VALID,19.7738,VALID,159,VALID,0.810023,
2002-11-03, 00:53:00,VALID,918.218,VALID,0,VALID,92.5067,VALID,0,VALID,19.7477,VALID,170,VALID,1.30293,
2002-11-03, 00:54:00,VALID,918.209,VALID,0,VALID,92.5537,VALID,0,VALID,19.742,VALID,175,VALID,1.06785,
2002-11-03, 00:55:00,VALID,918.224,VALID,0,VALID,92.5919,VALID,-0.0169808,VALID,19.7216,VALID,168,VALID,0.924409,
2002-11-03, 00:56:00,VALID,918.232,VALID,0,VALID,92.6275,VALID,0,VALID,19.7189,VALID,174,VALID,0.73418,
2002-11-03, 00:57:00,VALID,918.232,VALID,0,VALID,92.527,VALID,-0.0169808,VALID,19.7223,VALID,176,VALID,0.9375,
2002-11-03, 00:58:00,VALID,918.221,VALID,0,VALID,92.4596,VALID,0,VALID,19.7223,VALID,197,VALID,0.451339,
2002-11-03, 00:59:00,VALID,918.217,VALID,0,VALID,92.4291,VALID,0,VALID,19.7094,VALID,167,VALID,0.511819,
2002-11-03, 01:00:00,VALID,918.226,VALID,0,VALID,92.5728,VALID,0,VALID,19.69,VALID,168,VALID,0.94401,
2002-11-03, 01:01:00,VALID,918.234,VALID,0,VALID,92.6987,VALID,0,VALID,19.6503,VALID,174,VALID,0.789696,
2002-11-03, 01:02:00,VALID,918.234,VALID,0,VALID,92.8589,VALID,0,VALID,19.6538,VALID,177,VALID,1.11839,
2002-11-03, 01:03:00,VALID,918.228,VALID,0,VALID,92.8195,VALID,0,VALID,19.6699,VALID,172,VALID,1.42249,
2002-11-03, 01:04:00,VALID,918.223,VALID,0,VALID,92.7928,VALID,-0.0339617,VALID,19.6962,VALID,175,VALID,1.34663,
2002-11-03, 01:05:00,VALID,918.201,VALID,0,VALID,92.7623,VALID,0,VALID,19.7087,VALID,175,VALID,1.07432,
2002-11-03, 01:06:00,VALID,918.178,VALID,0,VALID,92.761,VALID,0.0169808,VALID,19.7281,VALID,182,VALID,1.23872,
2002-11-03, 01:07:00,VALID,918.177,VALID,0,VALID,92.6249,VALID,-0.0169808,VALID,19.7502,VALID,174,VALID,1.11719,
2002-11-03, 01:08:00,VALID,918.129,VALID,0,VALID,92.3592,VALID,0.0169808,VALID,19.7956,VALID,131,VALID,0.453536,
2002-11-03, 01:09:00,VALID,918.102,VALID,0,VALID,92.129,VALID,0,VALID,19.7564,VALID,63,VALID,0.257212,
2002-11-03, 01:10:00,VALID,918.082,VALID,0,VALID,92.2689,VALID,0,VALID,19.7184,VALID,62,VALID,0.0010016,
2002-11-03, 01:11:00,VALID,918.044,VALID,0,VALID,92.2956,VALID,0,VALID,19.6669,VALID,55,VALID,0.26837,
2002-11-03, 01:12:00,VALID,918.029,VALID,0,VALID,92.4635,VALID,-0.0169808,VALID,19.5862,VALID,26,VALID,0.57134,
2002-11-03, 01:13:00,VALID,917.998,VALID,0,VALID,92.7241,VALID,0,VALID,19.492,VALID,25,VALID,0.232171,
2002-11-03, 01:14:00,VALID,917.968,VALID,0,VALID,93.1578,VALID,0,VALID,19.4403,VALID,25,VALID,0.041867,
2002-11-03, 01:15:00,VALID,917.947,VALID,0,VALID,93.557,VALID,-0.0169808,VALID,19.3988,VALID,25,VALID,0.140625,
2002-11-03, 01:16:00,VALID,917.939,VALID,0,VALID,93.964,VALID,-0.0169808,VALID,19.3792,VALID,116,VALID,0.313734,
2002-11-03, 01:17:00,VALID,917.915,VALID,0,VALID,94.2755,VALID,-0.0169808,VALID,19.3665,VALID,132,VALID,0.0240385,
2002-11-03, 01:18:00,VALID,917.915,VALID,0,VALID,94.2997,VALID,0,VALID,19.3633,VALID,132,VALID,0,
2002-11-03, 01:19:00,VALID,917.919,VALID,0,VALID,94.1115,VALID,-0.0169808,VALID,19.3377,VALID,132,VALID,0,
2002-11-03, 01:20:00,VALID,917.908,VALID,0,VALID,93.7618,VALID,-0.0169808,VALID,19.2637,VALID,124,VALID,0.0758635,
2002-11-03, 01:21:00,VALID,917.908,VALID,0,VALID,93.8991,VALID,-0.0169808,VALID,19.1827,VALID,73,VALID,0.226357,
2002-11-03, 01:22:00,VALID,917.9,VALID,0,VALID,94.2882,VALID,0,VALID,19.1243,VALID,73,VALID,0.417535,
2002-11-03, 01:23:00,VALID,917.901,VALID,0,VALID,94.9558,VALID,0,VALID,19.0922,VALID,73,VALID,0.140402,
2002-11-03, 01:24:00,VALID,917.895,VALID,0,VALID,95.4911,VALID,0,VALID,19.128,VALID,74,VALID,0.398643,
2002-11-03, 01:25:00,VALID,917.892,VALID,0,VALID,95.5891,VALID,-0.0169808,VALID,19.179,VALID,98,VALID,0.590345,
2002-11-03, 01:26:00,VALID,917.878,VALID,0,VALID,95.3792,VALID,-0.0339617,VALID,19.2408,VALID,142,VALID,0.499805,
2002-11-03, 01:27:00,VALID,917.856,VALID,0,VALID,95.055,VALID,-0.0169808,VALID,19.2957,VALID,135,VALID,0.158306,
2002-11-03, 01:28:00,VALID,917.836,VALID,0,VALID,94.6354,VALID,-0.0169808,VALID,19.2982,VALID,101,VALID,0.607525,
2002-11-03, 01:29:00,VALID,917.816,VALID,0,VALID,94.7117,VALID,0,VALID,19.3218,VALID,138,VALID,0.723357,
2002-11-03, 01:30:00,VALID,917.794,VALID,0,VALID,94.6977,VALID,-0.0169808,VALID,19.3476,VALID,156,VALID,0.582732,
2002-11-03, 01:31:00,VALID,917.778,VALID,0,VALID,94.5374,VALID,0,VALID,19.3668,VALID,157,VALID,0.582532,
2002-11-03, 01:32:00,VALID,917.748,VALID,0,VALID,94.568,VALID,0,VALID,19.3765,VALID,169,VALID,0.789982,
2002-11-03, 01:33:00,VALID,917.736,VALID,0,VALID,94.5603,VALID,-0.0169808,VALID,19.3926,VALID,175,VALID,1.03027,
2002-11-03, 01:34:00,VALID,917.72,VALID,0,VALID,94.5438,VALID,-0.0169808,VALID,19.4152,VALID,182,VALID,0.936632,
2002-11-03, 01:35:00,VALID,917.706,VALID,0,VALID,94.3047,VALID,-0.0169808,VALID,19.4185,VALID,129,VALID,0.733073,
2002-11-03, 01:36:00,VALID,917.712,VALID,0,VALID,94.2526,VALID,-0.0169808,VALID,19.3963,VALID,169,VALID,0.839738,
2002-11-03, 01:37:00,VALID,917.728,VALID,0,VALID,94.3772,VALID,-0.0509425,VALID,19.3573,VALID,154,VALID,1.10609,
2002-11-03, 01:38:00,VALID,917.747,VALID,0,VALID,94.7371,VALID,-0.0509425,VALID,19.3576,VALID,171,VALID,1.1888,
2002-11-03, 01:39:00,VALID,917.787,VALID,0,VALID,94.8477,VALID,0,VALID,19.3506,VALID,158,VALID,0.74261,
2002-11-03, 01:40:00,VALID,917.8,VALID,0,VALID,94.7701,VALID,-0.0679233,VALID,19.3573,VALID,137,VALID,0.918837,
2002-11-03, 01:41:00,VALID,917.818,VALID,0,VALID,94.7422,VALID,-0.0339617,VALID,19.3546,VALID,160,VALID,0.998972,
2002-11-03, 01:42:00,VALID,917.8,VALID,0,VALID,94.7981,VALID,-0.0169808,VALID,19.3479,VALID,165,VALID,0.685811,
2002-11-03, 01:43:00,VALID,917.798,VALID,0,VALID,94.9418,VALID,0,VALID,19.3506,VALID,169,VALID,1.17397,
2002-11-03, 01:44:00,VALID,917.794,VALID,0,VALID,94.952,VALID,0,VALID,19.3894,VALID,171,VALID,1.11406,
2002-11-03, 01:45:00,VALID,917.8,VALID,0,VALID,94.7002,VALID,0,VALID,19.4448,VALID,165,VALID,0.834087,
2002-11-03, 01:46:00,VALID,917.814,VALID,0,VALID,94.4624,VALID,0,VALID,19.4739,VALID,164,VALID,0.463682,
2002-11-03, 01:47:00,VALID,917.822,VALID,0,VALID,94.2818,VALID,-0.0169808,VALID,19.4833,VALID,173,VALID,0.725781,
2002-11-03, 01:48:00,VALID,917.814,VALID,0,VALID,94.0886,VALID,0,VALID,19.4992,VALID,161,VALID,0.471012,
2002-11-03, 01:49:00,VALID,917.804,VALID,0,VALID,93.9894,VALID,0,VALID,19.5119,VALID,176,VALID,0.83192,
2002-11-03, 01:50:00,VALID,917.799,VALID,0,VALID,93.7211,VALID,0.0169808,VALID,19.5347,VALID,131,VALID,0.576723,
2002-11-03, 01:51:00,VALID,917.769,VALID,0,VALID,93.3892,VALID,-0.0339617,VALID,19.5223,VALID,70,VALID,0.192057,
2002-11-03, 01:52:00,VALID,917.753,VALID,0,VALID,93.5176,VALID,0,VALID,19.499,VALID,81,VALID,0.388091,
2002-11-03, 01:53:00,VALID,917.733,VALID,0,VALID,93.5799,VALID,0,VALID,19.5024,VALID,125,VALID,0.369792,
2002-11-03, 01:54:00,VALID,917.719,VALID,0,VALID,93.421,VALID,0,VALID,19.5258,VALID,162,VALID,0.445518,
2002-11-03, 01:55:00,VALID,917.691,VALID,0,VALID,93.2073,VALID,-0.0169808,VALID,19.5347,VALID,161,VALID,0.0997122,
2002-11-03, 01:56:00,VALID,917.678,VALID,0,VALID,93.1692,VALID,-0.0169808,VALID,19.5382,VALID,157,VALID,0.419975,
2002-11-03, 01:57:00,VALID,917.658,VALID,0,VALID,93.1209,VALID,0.0169808,VALID,19.5377,VALID,152,VALID,0.247396,
2002-11-03, 01:58:00,VALID,917.673,VALID,0,VALID,92.7381,VALID,-0.0169808,VALID,19.5119,VALID,77,VALID,0.394003,
2002-11-03, 01:59:00,VALID,917.66,VALID,0,VALID,92.8882,VALID,0,VALID,19.457,VALID,69,VALID,0.349712,
2002-11-03, 02:00:00,VALID,917.645,VALID,0,VALID,93.3459,VALID,0,VALID,19.4244,VALID,69,VALID,0.252003,
2002-11-03, 02:01:00,VALID,917.613,VALID,0,VALID,93.6295,VALID,0,VALID,19.4187,VALID,69,VALID,0.121795,
2002-11-03, 02:02:00,VALID,917.583,VALID,0,VALID,93.702,VALID,0,VALID,19.4284,VALID,117,VALID,0.367188,
2002-11-03, 02:03:00,VALID,917.548,VALID,0,VALID,93.6104,VALID,0.0339617,VALID,19.4281,VALID,158,VALID,0.533923,
2002-11-03, 02:04:00,VALID,917.514,VALID,0,VALID,93.674,VALID,-0.0509425,VALID,19.4353,VALID,152,VALID,0.456931,
2002-11-03, 02:05:00,VALID,917.489,VALID,0,VALID,93.5062,VALID,-0.101885,VALID,19.453,VALID,149,VALID,0.213542,
2002-11-03, 02:06:00,VALID,917.469,VALID,0,VALID,93.4985,VALID,-0.101885,VALID,19.4132,VALID,169,VALID,0.63557,
2002-11-03, 02:07:00,VALID,917.447,VALID,0,VALID,93.5634,VALID,-0.118866,VALID,19.4172,VALID,166,VALID,0.502262,
2002-11-03, 02:08:00,VALID,917.437,VALID,0,VALID,93.5939,VALID,-0.118866,VALID,19.4003,VALID,164,VALID,0.350084,
2002-11-03, 02:09:00,VALID,917.43,VALID,0,VALID,93.5087,VALID,-0.101885,VALID,19.3685,VALID,144,VALID,0.459418,
2002-11-03, 02:10:00,VALID,917.428,VALID,0,VALID,93.7897,VALID,-0.101885,VALID,19.3233,VALID,152,VALID,0.62283,
2002-11-03, 02:11:00,VALID,917.423,VALID,0,VALID,94.1178,VALID,-0.101885,VALID,19.291,VALID,161,VALID,0.609375,
2002-11-03, 02:12:00,VALID,917.426,VALID,0,VALID,94.3518,VALID,-0.135847,VALID,19.2944,VALID,165,VALID,0.298725,
2002-11-03, 02:13:00,VALID,917.442,VALID,0,VALID,94.451,VALID,-0.101885,VALID,19.291,VALID,166,VALID,0.551649,
2002-11-03, 02:14:00,VALID,917.446,VALID,0,VALID,94.5107,VALID,-0.101885,VALID,19.3138,VALID,163,VALID,0.512054,
2002-11-03, 02:15:00,VALID,917.45,VALID,0,VALID,94.4103,VALID,-0.101885,VALID,19.3332,VALID,138,VALID,0.241982,
2002-11-03, 02:16:00,VALID,917.461,VALID,0,VALID,93.9105,VALID,-0.101885,VALID,19.2907,VALID,75,VALID,0.626603,
2002-11-03, 02:17:00,VALID,917.486,VALID,0,VALID,94.4128,VALID,-0.101885,VALID,19.2683,VALID,133,VALID,0.582617,
2002-11-03, 02:18:00,VALID,917.488,VALID,0,VALID,94.671,VALID,-0.101885,VALID,19.2683,VALID,149,VALID,0.809211,
2002-11-03, 02:19:00,VALID,917.484,VALID,0,VALID,94.7485,VALID,-0.0509425,VALID,19.3069,VALID,144,VALID,0.22759,
2002-11-03, 02:20:00,VALID,917.48,VALID,0,VALID,94.4522,VALID,0,VALID,19.3223,VALID,144,VALID,0.23738,
2002-11-03, 02:21:00,VALID,917.481,VALID,0,VALID,94.1127,VALID,0,VALID,19.3059,VALID,131,VALID,0.363381,
2002-11-03, 02:22:00,VALID,917.465,VALID,0,VALID,94.306,VALID,-0.0169808,VALID,19.293,VALID,136,VALID,0.396635,
2002-11-03, 02:23:00,VALID,917.441,VALID,0,VALID,94.2793,VALID,0.0169808,VALID,19.289,VALID,125,VALID,0.419118,
2002-11-03, 02:24:00,VALID,917.433,VALID,0,VALID,93.4935,VALID,0.0169808,VALID,19.2187,VALID,41,VALID,0.518555,
2002-11-03, 02:25:00,VALID,917.432,VALID,0,VALID,93.9487,VALID,0.0169808,VALID,19.1379,VALID,23,VALID,0.319444,
2002-11-03, 02:26:00,VALID,917.411,VALID,0,VALID,94.2895,VALID,0,VALID,19.0895,VALID,38,VALID,0.881293,
2002-11-03, 02:27:00,VALID,917.416,VALID,0,VALID,95.1478,VALID,0,VALID,19.1054,VALID,32,VALID,0.826647,
2002-11-03, 02:28:00,VALID,917.409,VALID,0,VALID,95.1147,VALID,0.0169808,VALID,19.1181,VALID,37,VALID,0.479441,
2002-11-03, 02:29:00,VALID,917.403,VALID,0,VALID,95.0982,VALID,0,VALID,19.1317,VALID,98,VALID,0.511068,
2002-11-03, 02:30:00,VALID,917.402,VALID,0,VALID,95.0766,VALID,0,VALID,19.1049,VALID,95,VALID,0.262247,
2002-11-03, 02:31:00,VALID,917.394,VALID,0,VALID,95.2839,VALID,-0.0169808,VALID,19.125,VALID,81,VALID,0.485243,
2002-11-03, 02:32:00,VALID,917.398,VALID,0,VALID,95.2902,VALID,-0.0169808,VALID,19.1576,VALID,104,VALID,1.08635,
2002-11-03, 02:33:00,VALID,917.402,VALID,0,VALID,95.1643,VALID,-0.0169808,VALID,19.2226,VALID,117,VALID,0.951858,
2002-11-03, 02:34:00,VALID,917.405,VALID,0,VALID,95.0588,VALID,-0.0169808,VALID,19.2738,VALID,143,VALID,0.830983,
2002-11-03, 02:35:00,VALID,916.951,VALID,0,VALID,94.6811,VALID,-0.0169808,VALID,19.3119,VALID,115,VALID,0.692383,
2002-11-03, 02:36:00,VALID,917.361,VALID,0,VALID,94.3505,VALID,0,VALID,19.3059,VALID,49,VALID,0.632401,
2002-11-03, 02:37:00,VALID,917.334,VALID,0,VALID,94.2615,VALID,0,VALID,19.2669,VALID,45,VALID,0.747677,
2002-11-03, 02:38:00,VALID,917.335,VALID,0,VALID,94.3899,VALID,-0.0169808,VALID,19.2316,VALID,62,VALID,0.918555,
2002-11-03, 02:39:00,VALID,917.322,VALID,0,VALID,94.9024,VALID,0,VALID,19.2321,VALID,76,VALID,0.841283,
2002-11-03, 02:40:00,VALID,917.294,VALID,0,VALID,95.2813,VALID,-0.0169808,VALID,19.2388,VALID,89,VALID,0.771205,
2002-11-03, 02:41:00,VALID,917.276,VALID,0,VALID,95.5178,VALID,-0.0339617,VALID,19.2512,VALID,107,VALID,0.684696,
2002-11-03, 02:42:00,VALID,917.259,VALID,0,VALID,95.2724,VALID,0,VALID,19.2674,VALID,69,VALID,0.97092,
2002-11-03, 02:43:00,VALID,917.238,VALID,0,VALID,95.3398,VALID,0,VALID,19.2801,VALID,120,VALID,0.759079,
2002-11-03, 02:44:00,VALID,917.235,VALID,0,VALID,95.2267,VALID,0,VALID,19.3191,VALID,136,VALID,0.706931,
2002-11-03, 02:45:00,VALID,917.232,VALID,0,VALID,95.0817,VALID,0,VALID,19.3484,VALID,101,VALID,0.83861,
2002-11-03, 02:46:00,VALID,917.243,VALID,0,VALID,94.6582,VALID,0,VALID,19.3352,VALID,80,VALID,0.466488,
2002-11-03, 02:47:00,VALID,917.24,VALID,0,VALID,94.3111,VALID,-0.0169808,VALID,19.2704,VALID,49,VALID,0.449535,
2002-11-03, 02:48:00,VALID,917.241,VALID,0,VALID,94.7434,VALID,0,VALID,19.2415,VALID,76,VALID,0.630425,
2002-11-03, 02:49:00,VALID,917.243,VALID,0,VALID,95.2025,VALID,0,VALID,19.2383,VALID,93,VALID,1.09966,
2002-11-03, 02:50:00,VALID,917.246,VALID,0,VALID,95.6107,VALID,0,VALID,19.2599,VALID,139,VALID,1.17373,
2002-11-03, 02:51:00,VALID,917.228,VALID,0,VALID,95.6132,VALID,0,VALID,19.2992,VALID,150,VALID,1.35357,
2002-11-03, 02:52:00,VALID,917.221,VALID,0,VALID,95.5204,VALID,-0.0169808,VALID,19.3384,VALID,145,VALID,1.19391,
2002-11-03, 02:53:00,VALID,917.223,VALID,0,VALID,95.5344,VALID,-0.0169808,VALID,19.3516,VALID,160,VALID,1.08066,
2002-11-03, 02:54:00,VALID,917.195,VALID,0,VALID,95.5624,VALID,0.0169808,VALID,19.3479,VALID,175,VALID,0.7831,
2002-11-03, 02:55:00,VALID,917.203,VALID,0,VALID,95.6399,VALID,0,VALID,19.3315,VALID,158,VALID,0.36278,
2002-11-03, 02:56:00,VALID,917.197,VALID,0,VALID,95.6997,VALID,-0.0169808,VALID,19.3223,VALID,134,VALID,0.517228,
2002-11-03, 02:57:00,VALID,917.193,VALID,0,VALID,95.7417,VALID,0,VALID,19.2897,VALID,122,VALID,0.414063,
2002-11-03, 02:58:00,VALID,917.181,VALID,0,VALID,95.9159,VALID,0,VALID,19.2738,VALID,176,VALID,0.38713,
2002-11-03, 02:59:00,VALID,917.162,VALID,0,VALID,96.043,VALID,0.0169808,VALID,19.2545,VALID,153,VALID,0.22614,
2002-11-03, 03:00:00,VALID,917.169,VALID,0,VALID,96.1053,VALID,0,VALID,19.2448,VALID,119,VALID,0.207248,
2002-11-03, 03:01:00,VALID,917.168,VALID,0,VALID,96.1346,VALID,0,VALID,19.2219,VALID,123,VALID,0.0553385,
2002-11-03, 03:02:00,VALID,917.157,VALID,0,VALID,96.2338,VALID,0,VALID,19.2152,VALID,113,VALID,0.116982,
2002-11-03, 03:03:00,VALID,917.15,VALID,0,VALID,96.2821,VALID,0,VALID,19.2058,VALID,92,VALID,0.654605,
2002-11-03, 03:04:00,VALID,917.146,VALID,0,VALID,96.3431,VALID,0,VALID,19.2025,VALID,139,VALID,0.902778,
2002-11-03, 03:05:00,VALID,917.136,VALID,0,VALID,96.2719,VALID,0,VALID,19.2155,VALID,109,VALID,0.239955,
2002-11-03, 03:06:00,VALID,917.139,VALID,0,VALID,96.2363,VALID,0,VALID,19.2152,VALID,169,VALID,0.540913,
2002-11-03, 03:07:00,VALID,917.128,VALID,0,VALID,96.2528,VALID,0.0339617,VALID,19.2281,VALID,172,VALID,0.790865,
2002-11-03, 03:08:00,VALID,917.126,VALID,0,VALID,96.1638,VALID,0,VALID,19.2641,VALID,173,VALID,0.920703,
2002-11-03, 03:09:00,VALID,917.119,VALID,0,VALID,95.9464,VALID,0,VALID,19.2893,VALID,157,VALID,0.650082,
2002-11-03, 03:10:00,VALID,917.12,VALID,0,VALID,95.6298,VALID,0,VALID,19.3417,VALID,160,VALID,0.809416,
2002-11-03, 03:11:00,VALID,917.118,VALID,0,VALID,95.3996,VALID,0,VALID,19.37,VALID,157,VALID,0.65645,
2002-11-03, 03:12:00,VALID,917.119,VALID,0,VALID,95.2279,VALID,0,VALID,19.3924,VALID,128,VALID,0.672676,
2002-11-03, 03:13:00,VALID,917.129,VALID,0,VALID,95.0423,VALID,-0.0169808,VALID,19.4189,VALID,129,VALID,0.694912,
2002-11-03, 03:14:00,VALID,917.12,VALID,0,VALID,94.9456,VALID,0,VALID,19.4416,VALID,154,VALID,1.09628,
2002-11-03, 03:15:00,VALID,917.129,VALID,0,VALID,94.8261,VALID,0.0169808,VALID,19.4575,VALID,147,VALID,1.1084,
2002-11-03, 03:16:00,VALID,917.142,VALID,0,VALID,94.8121,VALID,0,VALID,19.4903,VALID,147,VALID,0.996745,
2002-11-03, 03:17:00,VALID,917.137,VALID,0,VALID,94.7422,VALID,0,VALID,19.496,VALID,122,VALID,0.89974,
2002-11-03, 03:18:00,VALID,917.152,VALID,0,VALID,94.7879,VALID,0,VALID,19.4957,VALID,144,VALID,0.890836,
2002-11-03, 03:19:00,VALID,917.177,VALID,0,VALID,94.8464,VALID,-0.0509425,VALID,19.5099,VALID,154,VALID,1.42002,
2002-11-03, 03:20:00,VALID,917.199,VALID,0,VALID,94.7969,VALID,-0.101885,VALID,19.5268,VALID,159,VALID,1.15603,
2002-11-03, 03:21:00,VALID,917.209,VALID,0,VALID,94.7727,VALID,-0.0849042,VALID,19.5461,VALID,166,VALID,0.940034,
2002-11-03, 03:22:00,VALID,917.219,VALID,0,VALID,94.7752,VALID,-0.0849042,VALID,19.5625,VALID,162,VALID,1.13021,
2002-11-03, 03:23:00,VALID,917.246,VALID,0,VALID,94.7574,VALID,-0.118866,VALID,19.569,VALID,135,VALID,0.799137,
2002-11-03, 03:24:00,VALID,917.268,VALID,0,VALID,94.7663,VALID,-0.101885,VALID,19.5628,VALID,156,VALID,0.789907,
2002-11-03, 03:25:00,VALID,917.295,VALID,0,VALID,94.7701,VALID,-0.135847,VALID,19.5598,VALID,133,VALID,0.923971,
2002-11-03, 03:26:00,VALID,917.304,VALID,0,VALID,94.6654,VALID,-0.122262,VALID,19.5466,VALID,77,VALID,0.646289,
2002-11-03, 03:27:00,VALID,917.319,VALID,0,VALID,94.7447,VALID,-0.101885,VALID,19.5243,VALID,96,VALID,0.472656,
2002-11-03, 03:28:00,VALID,917.336,VALID,0,VALID,94.9812,VALID,-0.118866,VALID,19.4878,VALID,160,VALID,0.82348,
2002-11-03, 03:29:00,VALID,917.335,VALID,0,VALID,95.2038,VALID,-0.118866,VALID,19.485,VALID,162,VALID,0.695508,
2002-11-03, 03:30:00,VALID,917.32,VALID,0,VALID,95.3258,VALID,-0.101885,VALID,19.4882,VALID,172,VALID,0.811678,
2002-11-03, 03:31:00,VALID,917.299,VALID,0,VALID,95.3589,VALID,-0.118866,VALID,19.495,VALID,146,VALID,0.491295,
2002-11-03, 03:32:00,VALID,917.299,VALID,0,VALID,95.2394,VALID,-0.118866,VALID,19.485,VALID,80,VALID,0.522436,
2002-11-03, 03:33:00,VALID,917.31,VALID,0,VALID,95.2534,VALID,-0.101885,VALID,19.4622,VALID,98,VALID,0.656033,
2002-11-03, 03:34:00,VALID,917.308,VALID,0,VALID,95.4276,VALID,-0.0509425,VALID,19.4418,VALID,154,VALID,0.763725,
2002-11-03, 03:35:00,VALID,917.282,VALID,0,VALID,95.5674,VALID,0,VALID,19.4383,VALID,143,VALID,0.920873,
2002-11-03, 03:36:00,VALID,917.264,VALID,0,VALID,95.687,VALID,0.0169808,VALID,19.418,VALID,159,VALID,0.743627,